Location: ČR
(50.0000°N, 15.0000°E)
Time: 18:31:17
(UTC+00:00)

Envisat - Pass Details

Date: 28 September 2021
Orbit: 764 x 766 km, 98.2° (Epoch: 22 October)

Event Time Altitude Azimuth Distance (km) Brightness Sun altitude
Rises 03:43:46 0° 19° (NNE) 3,244 6.7 -12.3°
Reaches altitude 10° 03:46:12 10° 26° (NNE) 2,313 6.0 -11.9°
Maximum altitude 03:51:03 43° 98° (E) 1,070 4.4 -11.1°
Drops below altitude 10° 03:55:52 10° 169° (S) 2,295 5.5 -10.4°
Sets 03:58:16 0° 176° (S) 3,216 6.2 -10.0°
